Location: Smithsonian NASM Public Observatory
(38.8879°N, 77.0185°W)
Time: 06:47:27
(UTC-05:00)

Daily predictions for brighter satellites

Satellite Brightness Start Highest point End
(mag) Time Altitude Azimuth Time Altitude Azimuth Time Altitude Azimuth
SL-16 R/B 3.6 18:16:49 10° NW 18:22:11 44° WSW 18:27:30 10° S
Meteor 1-11 Rocket 4.0 18:17:02 10° SSE 18:22:38 52° E 18:28:21 10° NNE
NOAA 12 4.3 18:17:55 10° SE 18:23:03 51° ENE 18:28:12 10° N
Cosmos 1140 Rocket 3.4 18:20:31 10° SSW 18:25:38 80° ESE 18:30:49 10° NNE
Cosmos 2333 Rocket 3.7 18:22:28 10° N 18:26:15 18° NE 18:30:01 10° E
Cosmos 614 Rocket 4.0 18:21:38 10° S 18:26:37 60° ESE 18:31:37 10° NNE
FENGYUN 3A 4.4 18:25:33 10° SE 18:30:16 32° ENE 18:35:00 10° N
ATLAS CENTAUR R/B 3.3 18:30:23 10° S 18:33:59 18° SE 18:36:03 11° E
GPS 2-04 Rocket1 3.4 18:31:38 10° WSW 18:35:41 47° S 18:39:41 11° E
Cosmos 2322 Rocket 4.3 18:31:21 10° NW 18:36:16 32° WSW 18:41:11 10° SSW
Meteor 1-28 Rocket 3.7 18:32:33 10° N 18:36:21 67° WNW 18:40:07 10° SSW
Cosmos 1570 Rocket 4.2 18:31:38 10° N 18:36:42 48° ENE 18:41:45 10° SE
Cosmos 2181 Rocket 4.0 18:30:44 10° N 18:37:00 70° E 18:43:20 10° SSE
Cosmos 1633 2.7 18:34:25 10° S 18:38:06 82° W 18:41:48 10° N
USA 229 DEB 4.2 18:33:05 10° NNW 18:39:50 43° NE 18:46:39 10° ESE
USA 229 4.2 18:33:11 10° NNW 18:39:55 43° NE 18:46:44 10° ESE
Genesis I 3.2 18:36:37 10° NNW 18:40:31 62° ENE 18:44:24 10° SE
Okean 1 Rocket 3.1 18:36:34 10° S 18:41:00 63° E 18:45:25 10° NNE
Cosmos 1238 Rocket 2.0 18:38:08 10° N 18:41:05 76° E 18:44:09 10° S
Cosmos 1709 Rocket 4.2 18:36:54 10° S 18:43:07 80° W 18:49:17 10° N
Cosmos 2074 Rocket 4.3 18:38:46 10° SSE 18:44:38 44° E 18:50:33 10° NNE
METEOR-M 4.1 18:39:36 10° SSE 18:44:56 80° ENE 18:50:18 10° N
Cosmos 1025 Rocket 3.6 18:44:46 10° N 18:48:51 37° ENE 18:52:55 10° SE
OTV 4 1.9 18:47:22 10° SSW 18:49:50 24° SSE 18:51:22 16° ESE
Spot 2 Rocket 4.1 18:45:32 10° SE 18:50:05 35° ENE 18:54:40 10° N
Cosmos 2184 Rocket 4.2 18:45:00 10° SSE 18:51:00 48° E 18:56:58 10° NNE
FengYun 1-2 T 4.3 18:49:52 10° SE 18:55:09 52° ENE 19:00:29 10° N
Cosmos 2322 4.1 18:52:26 10° NNW 18:58:07 67° WSW 19:03:44 10° S
Hubble Space Telescope 2.8 18:58:42 10° SSW 19:01:21 17° S 19:03:33 12° SE
BREEZE-M DEB (TANK) 2.2 18:59:26 10° SW 19:03:58 84° SE 19:05:20 24° ENE
Cosmos 1850 Rocket 4.3 19:00:19 10° SSW 19:05:35 72° WNW 19:10:57 10° NNE
Envisat 4.5 19:06:50 17° ENE 19:06:51 17° ENE 19:10:02 10° NNE
Cosmos 2208 Rocket 4.0 19:02:19 10° NNW 19:07:47 85° ENE 19:13:10 10° SSE
CZ-3C R/B 3.7 19:05:07 10° SW 19:08:21 12° SSW 19:10:29 10° S
SJ-6B 3.0 19:04:28 10° S 19:08:26 73° WSW 19:12:21 10° NNW
Cosmos 1544 Rocket 4.3 19:04:48 10° SSE 19:08:33 30° E 19:12:19 10° NNE
NOSS 0 Rocket 4.4 19:05:34 10° N 19:11:19 39° ENE 19:15:08 20° ESE
Cosmos 405 Rocket 3.4 19:07:59 10° N 19:11:41 33° ENE 19:13:12 25° ESE
ALOS 2.2 19:07:24 10° SSE 19:12:02 79° ENE 19:16:44 10° N
Cosmos 2237 Rocket 3.1 19:07:47 10° N 19:12:41 28° ENE 19:14:36 23° E
HJ-1C 3.2 19:09:57 10° SSE 19:13:18 82° ENE 19:16:41 10° N
Cosmos 2297 Rocket 3.1 19:09:11 10° SSE 19:13:37 24° ESE 19:14:24 23° E
Cosmos 2333 4.2 19:09:22 10° NNW 19:15:08 77° ENE 19:20:54 10° SSE
H-2A R/B 2.8 19:11:34 10° SSE 19:15:11 51° ENE 19:18:50 10° N
CZ-2D R/B 3.7 19:14:14 25° ESE 19:15:54 38° ENE 19:19:29 10° N
Cosmos 2237 4.5 19:11:05 10° NNW 19:16:48 71° WSW 19:22:27 10° SSE
COSMOS 2428 2.7 19:11:15 10° NNW 19:16:58 90° W 19:22:40 10° SSE
Okean 1-7 Rocket 3.8 19:15:09 10° NNW 19:19:39 72° W 19:24:05 10° S
Cosmos 2154 Rocket 4.3 19:14:34 10° SSE 19:20:29 43° E 19:26:24 10° NNE
Meteor 2-4 Rocket 3.9 19:16:55 10° NNW 19:22:23 70° W 19:27:42 10° S
Cosmos 2285 Rocket 3.9 19:17:24 10° NNW 19:23:51 73° ENE 19:30:14 10° SSE
Cosmos 2360 Rocket 3.9 19:20:02 10° NW 19:25:04 34° WSW 19:30:05 10° SSW
Cosmos 2219 Rocket 2.2 19:19:37 10° NNW 19:25:09 59° ENE 19:28:57 20° SE
Meteor 1-23 Rocket 4.4 19:22:22 10° NNW 19:28:10 79° W 19:33:52 10° S
Okean 2 3.3 19:25:06 10° N 19:29:17 73° E 19:33:27 10° SSE
Cosmos 2219 4.0 19:26:24 10° SW 19:32:00 53° WNW 19:37:37 10° NNE
OAO 3 Rocket 4.3 19:28:23 10° SW 19:32:36 28° SSE 19:33:19 27° SE
Cosmos 2227 Rocket 2.3 19:28:28 10° S 19:33:51 49° ESE 19:38:28 14° NE
Helios 1A 3.1 19:33:27 46° ESE 19:34:06 51° ENE 19:38:08 10° N
Atlas Centaur 2 3.9 19:29:00 10° SSW 19:34:13 21° SSE 19:35:47 19° SE
Cosmos 1486 Rocket 4.3 19:29:21 10° S 19:34:19 42° ESE 19:36:14 30° ENE
Helios 1B rocket 2.5 19:31:50 10° NNE 19:35:55 54° E 19:39:58 10° S
Abrixas rocket 3.7 19:33:17 10° W 19:36:19 31° NNW 19:37:11 26° N
SAR-Lupe-4 3.4 19:44:54 84° NNE 19:44:54 84° NNE 19:48:25 10° NNW
Cosmos 1455 Rocket 2.9 19:41:36 10° S 19:45:56 65° E 19:50:16 10° NNE
Cosmos 841 Rocket 4.5 19:42:52 10° N 19:46:23 29° NE 19:46:23 29° NE
SL-16 R/B 3.5 19:43:51 10° N 19:47:22 23° NE 19:47:22 23° NE
Cosmos 962 Rocket 4.4 19:44:44 10° SSE 19:50:44 56° E 19:56:44 10° NNE
Cosmos 1763 Rocket 3.8 19:53:14 10° N 19:57:29 46° NE 19:57:29 46° NE
Resurs 01 Rocket 2.8 19:54:41 10° S 19:58:50 41° W 20:03:01 10° NNW
Cosmos 2333 Rocket 2.3 20:05:22 10° NNW 20:11:07 73° WSW 20:13:00 44° S
GEOS 3 Rocket 4.2 20:08:20 19° NNE 20:11:59 55° NW 20:17:08 10° SW
Cosmos 1980 3.6 20:06:28 10° NNW 20:12:09 89° WSW 20:12:49 71° SSE
GPS 2-04 Rocket1 4.0 20:11:10 10° W 20:14:12 40° SW 20:14:12 40° SW
Cosmos 1295 Rocket 4.4 20:33:36 81° NNW 20:33:36 81° NNW 20:39:38 10° N
Cosmos 2082 4.2 20:30:33 10° SW 20:36:10 57° WNW 20:37:59 40° N
NOSS 3-1 (A) 3.9 20:36:08 10° NNW 20:43:52 84° ENE 20:44:07 83° E
Envisat 4.2 20:47:02 38° NW 20:47:02 38° NW 20:50:23 10° NNW
ATLAS 2AS CENTAUR R/B 4.1 20:42:19 10° NNW 20:48:06 31° NNE 20:48:06 31° NNE
Cosmos 2237 Rocket 3.3 20:51:32 10° NW 20:56:29 40° W 20:56:29 40° W
Cosmos 2297 Rocket 3.3 20:51:58 10° SW 20:56:25 41° W 20:56:25 41° W
NOSS 3-1 (C) 4.3 20:54:01 10° NW 21:01:39 63° WSW 21:02:16 61° SW
H-2A R/B 4.4 21:03:51 10° SW 21:42:31 18° E 22:18:23 10° E
H-2A R/B 4.4 21:03:50 10° SW 21:42:32 18° E 22:18:23 10° E
H-2A R/B 4.4 21:03:50 10° SW 21:42:31 18° E 22:18:23 10° E
H-2A R/B 4.4 21:03:51 10° SW 21:42:31 18° E 22:18:22 10° E
H-2A R/B 4.4 21:03:51 10° SW 21:42:30 18° E 22:18:22 10° E
H-2A R/B 4.4 21:03:51 10° SW 21:42:32 18° E 22:18:23 10° E
Cosmos 2227 Rocket 4.2 21:13:40 10° WSW 21:18:10 24° NW 21:20:36 18° NNW
SL-16 R/B 4.3 21:27:21 10° NW 21:29:17 21° NW 21:29:17 21° NW
